Lid_Strength_Index
2 3 4 6 13 14 16 13 9 9 9 8 6 7 8 6 8 11 2 1 1 1 -0 -0 -0 -0 -1 -1 -1 -1 -1 -1 -1 -1 -1 -1 -1 -1 -1 -1 -1 -1 -1 -1 -1 -1 -1 -1 -1
4 4 6 9 15 18 16 10 10 9 7 6 5 6 7 7 4 4 3 1 0 0 -0 -0 -0 -0 -0 -1 -1 -1 -1 -1 -1 -1 -1 -1 -1 -1 -1 -1 -1 -1 -1 -1 -1 -1 -1 -1 -1
4 4 9 12 16 17 15 10 9 7 6 6 7 6 6 6 4 3 1 1 0 0 -0 -0 -0 -0 -0 -0 -1 -0 -0 -1 -1 -1 -1 -1 -1 -1 -1 -1 -1 -1 -2 -2 -1 -1 -1 -1 -1
7 7 8 14 16 13 11 9 8 8 7 6 7 8 4 4 3 3 1 0 1 1 -0 -0 0 -0 -0 -1 -1 -0 -0 -0 -0 -1 -1 -1 -1 -1 -1 -1 -1 -1 -1 -2 -1 -1 -1 -0 -0
8 9 13 16 15 12 10 8 8 9 8 7 7 8 6 2 2 1 2 1 1 1 0 -0 0 -0 -0 -1 -1 -0 -0 -0 -0 -0 -1 -1 -1 -1 -1 -1 -1 -1 -1 -1 -1 -2 -1 -1 -0
11 10 16 15 13 11 9 8 8 8 7 6 7 7 6 3 2 2 1 1 0 1 0 -0 -0 -0 -0 -0 -0 -0 -0 -0 -0 -0 -0 -1 -1 -1 -1 -1 -1 -0 -1 -1 -1 -2 -2 -1 -1
11 13 14 14 13 12 10 7 8 7 7 7 6 8 6 4 2 1 1 1 1 0 0 0 0 -0 -0 0 0 0 -0 -0 -0 -0 -0 -0 -0 -0 -1 -1 -1 -1 -1 -1 -1 -2 -2 -1 -1
8 10 12 11 13 12 8 7 6 7 7 5 6 8 8 5 2 1 1 1 1 1 1 0 0 0 0 0 0 0 -0 -0 -0 -0 0 1 0 -0 -1 -1 -1 -1 -1 -1 -1 -1 -1 -1 -1
8 11 12 12 11 10 8 8 5 6 7 6 6 6 4 2 2 2 3 2 2 1 1 0 0 0 0 0 -0 -0 -0 -0 -0 -0 0 1 0 -0 -0 -0 -0 -1 -1 -1 -1 -1 -1 -1 -1
10 12 11 9 8 9 7 7 6 8 8 8 7 4 3 3 3 4 4 4 3 3 2 1 1 1 0 -0 0 0 0 0 0 0 1 1 1 0 -0 -0 -0 -0 -1 -1 -1 -1 -1 -1 -0
10 11 9 8 7 7 7 8 7 8 10 8 8 5 4 4 4 4 4 3 3 2 2 2 1 1 1 0 1 0 0 0 1 0 0 1 0 1 0 0 -0 -0 -0 -0 -0 -0 0 0 -0
12 10 8 8 7 8 8 7 8 8 8 6 6 5 4 5 5 4 4 3 3 2 2 1 1 1 1 0 0 0 1 1 1 1 0 1 0 1 1 0 0 0 0 0 0 0 0 0 -0
10 10 8 7 6 7 7 8 8 7 6 6 6 6 5 4 5 4 4 3 2 3 2 2 1 1 1 1 1 1 1 1 1 1 1 0 1 1 1 1 0 0 0 0 0 1 0 1 0
7 8 8 7 7 6 7 8 8 7 6 7 7 8 8 5 5 6 5 4 3 2 2 2 1 1 1 2 1 2 1 1 1 1 1 1 1 1 1 1 0 0 0 0 0 0 1 1 0
8 10 8 8 8 8 7 9 9 7 7 7 8 8 7 7 6 7 6 6 4 2 2 2 2 1 1 1 2 2 2 1 2 2 0 1 1 1 1 1 1 1 0 1 1 1 1 1 0
10 10 13 9 8 7 8 11 8 7 8 8 8 8 7 7 7 7 7 7 6 3 2 2 1 1 2 2 2 1 2 1 1 1 1 1 1 1 1 1 1 0 1 1 1 0 1 1 1
12 14 13 11 7 7 8 10 7 7 7 8 8 8 8 7 7 6 7 7 6 5 2 2 1 1 1 2 2 2 2 1 1 1 1 1 1 1 1 1 1 1 1 1 1 1 1 2 1
15 13 12 12 9 8 9 10 8 7 7 7 8 8 7 7 7 6 5 6 6 6 2 2 1 2 1 1 2 2 2 2 2 1 1 0 0 1 1 2 2 2 1 1 1 2 1 1 1
10 11 12 10 8 10 10 10 9 7 7 8 8 7 7 7 6 5 6 6 7 6 2 2 2 2 2 2 3 2 3 2 3 2 1 1 1 1 1 1 2 2 2 1 1 2 2 2 1
11 12 13 10 7 11 12 12 10 8 8 7 7 8 8 7 7 6 6 7 6 5 3 2 2 2 2 1 2 3 2 2 1 2 2 1 1 1 1 2 2 2 1 1 1 1 2 2 1
11 12 12 13 11 10 12 14 11 8 7 6 6 7 7 7 6 6 5 5 5 4 4 3 2 2 2 2 2 3 2 2 2 2 1 2 1 1 1 2 2 1 1 1 1 1 2 3 2
13 9 9 11 14 18 12 19 13 10 9 7 7 7 7 5 5 5 5 5 4 4 3 3 2 2 2 2 2 2 3 3 2 2 1 2 2 2 1 2 2 1 0 1 1 1 1 2 3
11 9 10 10 15 15 15 17 14 10 11 9 7 6 6 5 6 6 6 5 5 4 4 3 3 3 2 2 2 2 3 2 2 2 1 2 3 2 2 1 1 1 1 1 1 1 1 2 2
8 10 11 12 13 19 15 16 15 12 11 9 8 7 6 7 7 7 7 7 7 6 6 5 4 3 2 2 2 2 3 2 3 2 3 3 3 3 2 2 2 1 1 1 1 1 1 2 1
9 12 19 20 21 20 13 16 14 9 8 8 8 7 7 8 8 9 9 9 9 9 8 7 6 5 5 2 2 2 2 2 3 3 3 3 3 3 3 2 2 2 1 1 1 1 2 2 2
12 13 18 22 22 18 12 17 13 8 8 7 7 8 8 9 9 10 10 10 10 9 9 9 8 7 6 3 2 2 2 2 2 3 3 3 3 3 2 2 2 1 1 1 1 2 2 2 2
11 14 11 17 17 19 16 14 10 9 9 8 9 10 10 11 10 11 11 11 11 11 10 10 10 9 7 6 2 2 3 2 3 3 3 3 3 2 1 2 2 1 1 1 1 2 2 2 2
10 9 16 17 21 23 18 17 17 13 12 11 11 11 11 11 11 11 12 12 11 11 11 11 10 7 5 2 4 3 3 3 3 3 3 3 3 2 1 2 2 1 1 1 2 2 2 2 2
12 15 14 14 16 21 22 19 12 12 11 12 12 11 11 11 11 11 11 11 11 11 12 12 12 10 6 4 4 4 3 3 3 2 3 3 3 2 1 2 2 2 2 2 2 2 2 3 3
10 12 13 17 19 17 18 18 10 10 11 11 11 11 11 11 11 11 11 11 11 12 12 14 13 12 10 8 4 3 3 3 3 3 3 3 2 1 2 2 2 2 2 2 2 3 3 3 3